Regional Weather Roundup
Issued by NWS

Home | Current Version | Previous Version | Graphics & Text | Print | Product List | Glossary On
Versions: 1 2 3 4 5 6 7 8 9 10 11 12 13 14 15 16 17 18 19 20 21 22 23 24 25 26 27
000
ASUS45 KTFX 261110
RWRMT
MONTANA REGIONAL WEATHER ROUNDUP
NATIONAL WEATHER SERVICE GREAT FALLS MT
500 AM MDT TUE JUL 26 2016

NOTE: "FAIR" INDICATES FEW OR NO CLOUDS BELOW 12000 FEET WITH NO
SIGNIFICANT WEATHER AND/OR OBSTRUCTIONS TO VISIBILITY.

MTZ001>007-043-261200-
WEST OF THE DIVIDE

CITY           SKY/WX    TMP DP  RH WIND       PRES   REMARKS
KALISPELL      CLEAR     55  52  89 N7        30.03R
MISSOULA       CLEAR     56  46  69 CALM      30.08R
BUTTE          CLEAR     46  39  76 S3        30.20R
MULLAN PASS    PTCLDY    66  40  38 CALM      30.21S
ANACONDA         N/A     52  37  58 SW5       30.17R
DEER LODGE       N/A     48  45  87 CALM      30.18S
EUREKA           N/A     57  52  82 CALM      30.05S
HAMILTON         N/A     55  43  62 CALM      30.09R
LIBBY            N/A     57  48  72 CALM      30.04R
RONAN            N/A     54  49  83 CALM      30.08R
$$

MTZ008-052>055-261200-
SOUTHWEST MONTANA

CITY           SKY/WX    TMP DP  RH WIND       PRES   REMARKS
BOZEMAN        CLOUDY    56  47  71 CALM      30.13R
DILLON         CLEAR     50  41  71 S6        30.16S
W YELLOWSTONE  CLOUDY    41  32  70 CALM      30.27S
ENNIS          CLEAR     52  37  58 CALM      30.21S
THREE FORKS      N/A     53  30  41 CALM      30.10S
$$

MTZ009-010-012-014-046-048-049-054-261200-
EAST SLOPES AND CENTRAL MONTANA

CITY           SKY/WX    TMP DP  RH WIND       PRES   REMARKS
CUT BANK       PTCLDY    59  54  83 NE10      30.11R
GREAT FALLS    CLEAR     54  48  80 W5        30.08S
MALMSTROM AFB  CLOUDY    59  50  72 W7        30.07S
HELENA         CLEAR     57  49  74 CALM      30.11S
CHOTEAU          N/A     57  54  88 W5        30.12F
$$

MTZ011-013-016-021-045-047-050-051-261200-
NORTH CENTRAL MONTANA

CITY           SKY/WX    TMP DP  RH WIND       PRES   REMARKS
HAVRE          CLOUDY    65  60  84 E12       30.02F
LEWISTOWN      CLEAR     56  49  77 S6        30.10S
N BAR RANCH      N/A     59  45  58 W8        30.12R
CHINOOK          N/A     63  63 100 CALM      30.04S
$$

MTZ017>020-022>027-061-062-261200-
NORTHEAST MONTANA

CITY           SKY/WX    TMP DP  RH WIND       PRES   REMARKS
GLASGOW        PTCLDY    64  61  90 E10       30.02F
JORDAN           N/A     69  57  65 CALM      30.00S
SIDNEY         CLOUDY    66  61  82 W7        30.04R
WOLF POINT     CLOUDY    66  62  87 E3        30.05R
PLENTYWOOD       N/A     63  57  82 NE5       30.07R
POPLAR           N/A     66  63  88 NE9       30.06R
$$

MTZ028>42-056>058-261200-
SOUTHCENTRAL AND SOUTHEAST MONTANA

CITY           SKY/WX    TMP DP  RH WIND       PRES   REMARKS
BAKER          CLOUDY    70  62  76 NW7       30.09R
BILLINGS       PTCLDY    64  51  62 SW14      30.06F
LIVINGSTON     CLEAR     54  46  74 SW5       30.13F
MILES CITY     LGT RAIN  67  59  75 E22G35    29.95F
FORSYTH          N/A     70  57  64 N7        29.97S
LAUREL           N/A     59  48  66 W3        30.06F
ROUNDUP          N/A     65  50  58 SW6       29.98R
$$

REGIONAL REPORTS...DAKOTAS

CITY           SKY/WX    TMP DP  RH WIND       PRES   REMARKS
WILLISTON      CLEAR     63  59  87 N8        30.02S
MINOT          CLEAR     63  59  87 NW6       30.00R
DICKINSON      PTCLDY    62  61  96 NE7       29.98F FOG
BEACH            N/A     64  64 100 W18       30.08R
CROSBY           N/A     57  57 100 NW6       30.09R FOG
WATFORD CITY     N/A    N/A N/A N/A MISG        N/A
BISMARCK       CLEAR     70  68  93 NE7       29.95S
GRAND FORKS    PTCLDY    65  62  90 N6        29.92S
FARGO          CLOUDY    69  62  78 SW8       29.92R
BUFFALO SD       N/A     69  63  81 N15       29.93R
RAPID CITY     PTCLDY    67  60  78 SE7       29.99F
$$

REGIONAL REPORTS...WYOMING/IDAHO/WASHINGTON

CITY           SKY/WX    TMP DP  RH WIND       PRES   REMARKS
GILLETTE       CLOUDY    64  59  83 CALM      30.06R
SHERIDAN       CLOUDY    71  46  40 NW20G25   30.07S
BUFFALO WY     CLEAR     67  46  47 N12G28    30.12R
CODY           CLEAR     63  43  48 CALM      30.16F
YELLOWSTONE LA   N/A     41  34  76 NW3       30.35S
IDAHO FALLS    CLEAR     47  41  80 N6        30.12R
SALMON         CLEAR     54  39  58 CALM      30.11R
BOISE          CLEAR     70  35  27 S7        29.96R
SPOKANE        PTCLDY    68  49  50 E3        29.98R
$$

REGIONAL REPORTS...ALBERTA

CITY           SKY/WX    TMP DP  RH WIND       PRES   REMARKS
EDMONTON       PTCLDY    61  54  77 S6        30.03S
CALGARY        PTCLDY    57  55  94 CALM      30.08S
LETHBRIDGE     CLEAR     59  55  88 SW14      30.05S
MEDICINE HAT   MOCLDY    63  57  82 CALM      30.04F
WATERTON GATE    N/A     54  50  87 S6          N/A
MILK RIVER       N/A     61  57  88 E10         N/A
ONEFOUR          N/A     64  57  77 NE12        N/A
$$

REGIONAL REPORTS...SASKATCHEWAN

CITY           SKY/WX    TMP DP  RH WIND       PRES   REMARKS
SWIFT CURRENT  CLEAR     54  52  94 SE7       30.10S
REGINA         PTCLDY    52  50  93 CALM      30.08R
SASKATOON      PTCLDY    48  46  93 N3        30.10S
CYPRESS HILLS    N/A     59  54  82 SE7         N/A
VAL MARIE        N/A     55  54  94 NE7         N/A
ROCKGLEN         N/A     59  54  82 NE3         N/A
ASSINIBOIA       N/A     54  54 100 S2          N/A
$$




USA.gov is the U.S. government's official web portal to all federal, state and local government web resources and services.